| time (UTC) | temp F | wind direction | speed MPH | gust MPH | rain 1hr in | rain 24hr in | rain mn in | humidity % | barometer mb |
| 20260510211103 | 76 | 326 | 2.0 | 8.0 | 0.00 | 0.00 | 0.00 | 32 | 1012.3 |
| 20260510210603 | 76 | 323 | 3.0 | 9.0 | 0.00 | 0.00 | 0.00 | 32 | 1012.4 |
| 20260510210104 | 76 | 321 | 2.0 | 8.0 | 0.00 | 0.00 | 0.00 | 33 | 1012.4 |
| 20260510205104 | 76 | 329 | 2.0 | 9.0 | 0.00 | 0.00 | 0.00 | 32 | 1012.4 |
| 20260510204604 | 75 | 323 | 0.0 | 6.0 | 0.00 | 0.00 | 0.00 | 33 | 1012.4 |
| 20260510204104 | 75 | 46 | 1.0 | 8.0 | 0.00 | 0.00 | 0.00 | 32 | 1012.4 |
| 20260510202603 | 75 | 322 | 1.0 | 6.0 | 0.00 | 0.00 | 0.00 | 33 | 1012.3 |
| 20260510202104 | 74 | 318 | 2.0 | 5.0 | 0.00 | 0.00 | 0.00 | 33 | 1012.5 |
| 20260510201103 | 74 | 328 | 2.0 | 5.0 | 0.00 | 0.00 | 0.00 | 35 | 1012.5 |
| 20260510200604 | 74 | 338 | 1.0 | 3.0 | 0.00 | 0.00 | 0.00 | 34 | 1012.6 |
| 20260510200104 | 74 | 339 | 1.0 | 3.0 | 0.00 | 0.00 | 0.00 | 33 | 1012.6 |
| 20260510195604 | 74 | 26 | 0.0 | 0.0 | 0.00 | 0.00 | 0.00 | 34 | 1012.6 |
| 20260510194104 | 73 | 326 | 1.0 | 5.0 | 0.00 | 0.00 | 0.00 | 33 | 1012.8 |
| 20260510193603 | 73 | 328 | 2.0 | 5.0 | 0.00 | 0.00 | 0.00 | 34 | 1012.7 |
| 20260510193103 | 73 | 326 | 1.0 | 3.0 | 0.00 | 0.00 | 0.00 | 34 | 1012.6 |
| 20260510192604 | 72 | 300 | 0.0 | 1.0 | 0.00 | 0.00 | 0.00 | 34 | 1012.6 |
| 20260510192104 | 71 | 281 | 0.0 | 0.0 | 0.00 | 0.00 | 0.00 | 36 | 1012.8 |
| 20260510191604 | 71 | 281 | 0.0 | 0.0 | 0.00 | 0.00 | 0.00 | 35 | 1012.8 |
| 20260510190603 | 70 | 323 | 2.0 | 3.0 | 0.00 | 0.00 | 0.00 | 37 | 1012.9 |
| 20260510185604 | 70 | 328 | 0.0 | 2.0 | 0.00 | 0.00 | 0.00 | 38 | 1013.0 |
| 20260510185104 | 70 | 322 | 1.0 | 3.0 | 0.00 | 0.00 | 0.00 | 38 | 1013.1 |
| 20260510184604 | 69 | 321 | 1.0 | 3.0 | 0.00 | 0.00 | 0.00 | 37 | 1013.1 |
| 20260510183603 | 69 | 290 | 0.0 | 0.0 | 0.00 | 0.00 | 0.00 | 38 | 1013.2 |
| 20260510183104 | 68 | 290 | 0.0 | 0.0 | 0.00 | 0.00 | 0.00 | 39 | 1013.2 |
| 20260510182603 | 68 | 290 | 0.0 | 0.0 | 0.00 | 0.00 | 0.00 | 39 | 1013.3 |
| 20260510182103 | 67 | 290 | 0.0 | 3.0 | 0.00 | 0.00 | 0.00 | 41 | 1013.3 |
| 20260510181603 | 67 | 287 | 1.0 | 3.0 | 0.00 | 0.00 | 0.00 | 40 | 1013.2 |
| 20260510181103 | 67 | 283 | 0.0 | 0.0 | 0.00 | 0.00 | 0.00 | 40 | 1013.2 |
| 20260510180603 | 66 | 283 | 0.0 | 3.0 | 0.00 | 0.00 | 0.00 | 40 | 1013.2 |
| 20260510175604 | 67 | 283 | 0.0 | 3.0 | 0.00 | 0.00 | 0.00 | 41 | 1013.2 |
| 20260510174604 | 66 | 311 | 0.0 | 1.0 | 0.00 | 0.00 | 0.00 | 41 | 1013.3 |
| 20260510174104 | 66 | 311 | 0.0 | 3.0 | 0.00 | 0.00 | 0.00 | 42 | 1013.2 |
| 20260510173604 | 66 | 305 | 0.0 | 1.0 | 0.00 | 0.00 | 0.00 | 43 | 1013.2 |
| 20260510173103 | 66 | 305 | 0.0 | 0.0 | 0.00 | 0.00 | 0.00 | 44 | 1013.2 |
| 20260510172604 | 65 | 305 | 1.0 | 3.0 | 0.00 | 0.00 | 0.00 | 43 | 1013.4 |
| 20260510172104 | 65 | 265 | 0.0 | 1.0 | 0.00 | 0.00 | 0.00 | 41 | 1013.2 |
| 20260510171604 | 65 | 264 | 0.0 | 1.0 | 0.00 | 0.00 | 0.00 | 43 | 1013.0 |
| 20260510171103 | 65 | 264 | 0.0 | 0.0 | 0.00 | 0.00 | 0.00 | 43 | 1013.0 |
| 20260510165603 | 64 | 264 | 0.0 | 0.0 | 0.00 | 0.00 | 0.00 | 44 | 1013.1 |
| 20260510165103 | 64 | 264 | 0.0 | 0.0 | 0.00 | 0.00 | 0.00 | 45 | 1013.1 |
| 20260510164103 | 63 | 305 | 0.0 | 3.0 | 0.00 | 0.00 | 0.00 | 46 | 1013.1 |
| 20260510163604 | 62 | 215 | 0.0 | 0.0 | 0.00 | 0.00 | 0.00 | 49 | 1013.2 |
| 20260510163103 | 61 | 207 | 0.0 | 0.0 | 0.00 | 0.00 | 0.00 | 48 | 1013.3 |
| 20260510162603 | 61 | 207 | 0.0 | 0.0 | 0.00 | 0.00 | 0.00 | 49 | 1013.3 |
| 20260510162103 | 60 | 207 | 0.0 | 0.0 | 0.00 | 0.00 | 0.00 | 50 | 1013.4 |
| 20260510161603 | 59 | 207 | 0.0 | 0.0 | 0.00 | 0.00 | 0.00 | 51 | 1013.3 |
| 20260510155605 | 58 | 207 | 0.0 | 2.0 | 0.00 | 0.00 | 0.00 | 52 | 1013.4 |
| 20260510155103 | 58 | 195 | 0.0 | 2.0 | 0.00 | 0.00 | 0.00 | 53 | 1013.3 |
| 20260510154604 | 57 | 194 | 0.0 | 0.0 | 0.00 | 0.00 | 0.00 | 53 | 1013.5 |
| 20260510154103 | 57 | 194 | 0.0 | 0.0 | 0.00 | 0.00 | 0.00 | 53 | 1013.5 |
| 20260510153604 | 57 | 194 | 0.0 | 2.0 | 0.00 | 0.00 | 0.00 | 53 | 1013.4 |
| 20260510153103 | 57 | 191 | 0.0 | 0.0 | 0.00 | 0.00 | 0.00 | 53 | 1013.5 |
| 20260510152603 | 57 | 191 | 0.0 | 1.0 | 0.00 | 0.00 | 0.00 | 53 | 1013.5 |
| 20260510152104 | 56 | 190 | 0.0 | 0.0 | 0.00 | 0.00 | 0.00 | 53 | 1013.5 |
| 20260510151603 | 56 | 190 | 0.0 | 0.0 | 0.00 | 0.00 | 0.00 | 53 | 1013.6 |
| 20260510150603 | 56 | 175 | 0.0 | 0.0 | 0.00 | 0.00 | 0.00 | 54 | 1013.7 |
| 20260510150104 | 55 | 175 | 0.0 | 0.0 | 0.00 | 0.00 | 0.00 | 54 | 1013.8 |
| 20260510145605 | 55 | 174 | 0.0 | 0.0 | 0.00 | 0.00 | 0.00 | 55 | 1013.8 |
| 20260510145103 | 54 | 176 | 0.0 | 0.0 | 0.00 | 0.00 | 0.00 | 57 | 1013.9 |
| 20260510144604 | 52 | 176 | 0.0 | 1.0 | 0.00 | 0.00 | 0.00 | 58 | 1013.8 |
| 20260510144103 | 51 | 198 | 0.0 | 3.0 | 0.00 | 0.00 | 0.00 | 60 | 1013.8 |
| 20260510143603 | 51 | 83 | 0.0 | 2.0 | 0.00 | 0.00 | 0.00 | 60 | 1013.9 |
| 20260510143104 | 50 | 72 | 0.0 | 0.0 | 0.00 | 0.00 | 0.00 | 61 | 1013.8 |
| 20260510142603 | 49 | 250 | 0.0 | 0.0 | 0.00 | 0.00 | 0.00 | 62 | 1013.7 |
| 20260510142103 | 49 | 250 | 0.0 | 1.0 | 0.00 | 0.00 | 0.00 | 60 | 1013.8 |
| 20260510141603 | 49 | 243 | 0.0 | 2.0 | 0.00 | 0.00 | 0.00 | 60 | 1013.9 |
| 20260510141103 | 49 | 204 | 0.0 | 3.0 | 0.00 | 0.00 | 0.00 | 60 | 1013.9 |
| 20260510140603 | 48 | 216 | 0.0 | 3.0 | 0.00 | 0.00 | 0.00 | 59 | 1013.8 |
| 20260510135603 | 48 | 222 | 0.0 | 3.0 | 0.00 | 0.00 | 0.00 | 59 | 1013.7 |
| 20260510135103 | 48 | 213 | 0.0 | 2.0 | 0.00 | 0.00 | 0.00 | 60 | 1013.6 |
| 20260510134604 | 47 | 188 | 0.0 | 3.0 | 0.00 | 0.00 | 0.00 | 59 | 1013.7 |
| 20260510134104 | 47 | 219 | 0.0 | 2.0 | 0.00 | 0.00 | 0.00 | 59 | 1013.5 |
| 20260510133604 | 47 | 230 | 0.0 | 3.0 | 0.00 | 0.00 | 0.00 | 60 | 1013.3 |
| 20260510133103 | 47 | 224 | 0.0 | 2.0 | 0.00 | 0.00 | 0.00 | 60 | 1013.3 |
| 20260510132604 | 47 | 227 | 0.0 | 3.0 | 0.00 | 0.00 | 0.00 | 59 | 1013.3 |
| 20260510132104 | 47 | 216 | 0.0 | 5.0 | 0.00 | 0.00 | 0.00 | 59 | 1013.4 |
| 20260510131603 | 46 | 232 | 0.0 | 3.0 | 0.00 | 0.00 | 0.00 | 59 | 1013.4 |
| 20260510131104 | 46 | 224 | 0.0 | 3.0 | 0.00 | 0.00 | 0.00 | 59 | 1013.4 |
| 20260510130603 | 46 | 212 | 0.0 | 1.0 | 0.00 | 0.00 | 0.00 | 59 | 1013.4 |
| 20260510130104 | 46 | 211 | 0.0 | 0.0 | 0.00 | 0.00 | 0.00 | 59 | 1013.2 |
| 20260510125103 | 46 | 194 | 0.0 | 1.0 | 0.00 | 0.00 | 0.00 | 59 | 1013.3 |
| 20260510124603 | 46 | 184 | 0.0 | 3.0 | 0.00 | 0.00 | 0.00 | 59 | 1013.2 |
| 20260510124104 | 46 | 227 | 0.0 | 3.0 | 0.00 | 0.00 | 0.00 | 59 | 1013.2 |
| 20260510123603 | 46 | 215 | 0.0 | 3.0 | 0.00 | 0.00 | 0.00 | 59 | 1013.2 |
| 20260510123104 | 46 | 211 | 0.0 | 0.0 | 0.00 | 0.00 | 0.00 | 59 | 1013.2 |
| 20260510122103 | 47 | 213 | 0.0 | 0.0 | 0.00 | 0.00 | 0.00 | 59 | 1013.2 |
| 20260510121603 | 47 | 213 | 0.0 | 0.0 | 0.00 | 0.00 | 0.00 | 58 | 1013.3 |
| 20260510121103 | 47 | 213 | 0.0 | 0.0 | 0.00 | 0.00 | 0.00 | 58 | 1013.2 |
| 20260510120603 | 47 | 213 | 0.0 | 0.0 | 0.00 | 0.00 | 0.00 | 57 | 1013.2 |
| 20260510120104 | 47 | 213 | 0.0 | 1.0 | 0.00 | 0.00 | 0.00 | 57 | 1013.2 |
| 20260510115604 | 47 | 200 | 0.0 | 0.0 | 0.00 | 0.00 | 0.00 | 57 | 1013.3 |
| 20260510115103 | 47 | 200 | 0.0 | 0.0 | 0.00 | 0.00 | 0.00 | 56 | 1013.3 |
| 20260510114603 | 47 | 200 | 0.0 | 0.0 | 0.00 | 0.00 | 0.00 | 56 | 1013.3 |
| 20260510113604 | 47 | 207 | 0.0 | 0.0 | 0.00 | 0.00 | 0.00 | 56 | 1013.4 |
| 20260510113104 | 47 | 208 | 0.0 | 2.0 | 0.00 | 0.00 | 0.00 | 55 | 1013.4 |
| 20260510112603 | 47 | 172 | 0.0 | 0.0 | 0.00 | 0.00 | 0.00 | 55 | 1013.4 |
| 20260510112103 | 47 | 172 | 0.0 | 1.0 | 0.00 | 0.00 | 0.00 | 55 | 1013.4 |
| 20260510111604 | 47 | 216 | 0.0 | 1.0 | 0.00 | 0.00 | 0.00 | 55 | 1013.5 |
| 20260510110604 | 47 | 215 | 0.0 | 0.0 | 0.00 | 0.00 | 0.00 | 55 | 1013.5 |
| 20260510105604 | 47 | 251 | 0.0 | 0.0 | 0.00 | 0.00 | 0.00 | 55 | 1013.6 |
| 20260510104604 | 47 | 286 | 0.0 | 0.0 | 0.00 | 0.00 | 0.00 | 54 | 1013.7 |
| 20260510103604 | 47 | 321 | 0.0 | 0.0 | 0.00 | 0.00 | 0.00 | 53 | 1013.8 |
| 20260510102604 | 48 | 321 | 0.0 | 0.0 | 0.00 | 0.00 | 0.00 | 53 | 1013.8 |
| 20260510102103 | 48 | 321 | 0.0 | 0.0 | 0.00 | 0.00 | 0.00 | 52 | 1014.0 |
| 20260510101604 | 48 | 322 | 0.0 | 0.0 | 0.00 | 0.00 | 0.00 | 52 | 1014.1 |
| 20260510101103 | 48 | 322 | 0.0 | 0.0 | 0.00 | 0.00 | 0.00 | 52 | 1014.0 |
| 20260510100603 | 48 | 322 | 0.0 | 0.0 | 0.00 | 0.00 | 0.00 | 52 | 1014.0 |
| 20260510100104 | 48 | 322 | 0.0 | 0.0 | 0.00 | 0.00 | 0.00 | 51 | 1013.9 |
| 20260510095104 | 48 | 322 | 0.0 | 0.0 | 0.00 | 0.00 | 0.00 | 51 | 1014.1 |
| 20260510094603 | 48 | 322 | 0.0 | 0.0 | 0.00 | 0.00 | 0.00 | 51 | 1014.1 |
| 20260510094103 | 48 | 322 | 0.0 | 0.0 | 0.00 | 0.00 | 0.00 | 50 | 1014.0 |
| 20260510093604 | 48 | 322 | 0.0 | 0.0 | 0.00 | 0.00 | 0.00 | 50 | 1014.0 |
| 20260510093103 | 49 | 322 | 0.0 | 0.0 | 0.00 | 0.00 | 0.00 | 50 | 1014.0 |
| 20260510092604 | 49 | 322 | 0.0 | 0.0 | 0.00 | 0.00 | 0.00 | 50 | 1014.1 |
| 20260510092103 | 49 | 322 | 0.0 | 0.0 | 0.00 | 0.00 | 0.00 | 50 | 1014.1 |
| 20260510091604 | 49 | 322 | 0.0 | 0.0 | 0.00 | 0.00 | 0.00 | 50 | 1014.1 |
| 20260510090604 | 49 | 322 | 0.0 | 0.0 | 0.00 | 0.00 | 0.00 | 49 | 1014.1 |
| 20260510090103 | 49 | 322 | 0.0 | 0.0 | 0.00 | 0.00 | 0.00 | 50 | 1014.2 |
| 20260510085604 | 49 | 322 | 0.0 | 0.0 | 0.00 | 0.00 | 0.00 | 50 | 1014.1 |
| 20260510085103 | 49 | 322 | 0.0 | 0.0 | 0.00 | 0.00 | 0.00 | 50 | 1014.1 |
| 20260510084604 | 49 | 322 | 0.0 | 0.0 | 0.00 | 0.00 | 0.00 | 50 | 1014.1 |
| 20260510084103 | 49 | 322 | 0.0 | 0.0 | 0.00 | 0.00 | 0.00 | 49 | 1014.2 |
| 20260510083604 | 49 | 322 | 0.0 | 0.0 | 0.00 | 0.00 | 0.00 | 49 | 1014.3 |
| 20260510083103 | 50 | 322 | 0.0 | 0.0 | 0.00 | 0.00 | 0.00 | 48 | 1014.3 |
| 20260510082603 | 50 | 322 | 0.0 | 0.0 | 0.00 | 0.00 | 0.00 | 47 | 1014.2 |
| 20260510082104 | 50 | 322 | 0.0 | 0.0 | 0.00 | 0.00 | 0.00 | 48 | 1014.3 |
| 20260510081603 | 50 | 322 | 0.0 | 0.0 | 0.00 | 0.00 | 0.00 | 47 | 1014.3 |
| 20260510081103 | 50 | 322 | 0.0 | 0.0 | 0.00 | 0.00 | 0.00 | 46 | 1014.3 |
| 20260510080604 | 51 | 322 | 0.0 | 0.0 | 0.00 | 0.00 | 0.00 | 46 | 1014.4 |
| 20260510080104 | 51 | 322 | 0.0 | 0.0 | 0.00 | 0.00 | 0.00 | 45 | 1014.3 |
| 20260510075603 | 51 | 322 | 0.0 | 0.0 | 0.00 | 0.00 | 0.00 | 45 | 1014.2 |
| 20260510075103 | 52 | 322 | 0.0 | 0.0 | 0.00 | 0.00 | 0.00 | 44 | 1014.2 |
| 20260510074603 | 52 | 322 | 0.0 | 0.0 | 0.00 | 0.00 | 0.00 | 44 | 1014.3 |
| 20260510074103 | 52 | 322 | 0.0 | 0.0 | 0.00 | 0.00 | 0.00 | 43 | 1014.3 |
| 20260510072604 | 53 | 322 | 0.0 | 0.0 | 0.00 | 0.00 | 0.00 | 42 | 1014.4 |
| 20260510072104 | 53 | 322 | 0.0 | 0.0 | 0.00 | 0.00 | 0.00 | 43 | 1014.4 |
| 20260510071603 | 54 | 322 | 0.0 | 0.0 | 0.00 | 0.00 | 0.00 | 44 | 1014.5 |
| 20260510071104 | 54 | 322 | 0.0 | 0.0 | 0.00 | 0.00 | 0.00 | 43 | 1014.2 |
| 20260510070604 | 54 | 322 | 0.0 | 0.0 | 0.00 | 0.00 | 0.00 | 42 | 1014.3 |
| 20260510070104 | 55 | 322 | 0.0 | 0.0 | 0.00 | 0.00 | 0.00 | 42 | 1014.3 |
| 20260510065603 | 55 | 322 | 0.0 | 0.0 | 0.00 | 0.00 | 0.00 | 43 | 1014.3 |
| 20260510065103 | 55 | 322 | 0.0 | 0.0 | 0.00 | 0.00 | 0.00 | 42 | 1014.3 |
| 20260510064604 | 56 | 322 | 0.0 | 0.0 | 0.00 | 0.00 | 0.00 | 42 | 1014.4 |
| 20260510064103 | 56 | 322 | 0.0 | 0.0 | 0.00 | 0.00 | 0.00 | 41 | 1014.4 |
| 20260510063604 | 56 | 322 | 0.0 | 0.0 | 0.00 | 0.00 | 0.00 | 40 | 1014.5 |
| 20260510063103 | 57 | 322 | 0.0 | 0.0 | 0.00 | 0.00 | 0.00 | 40 | 1014.5 |
| 20260510062604 | 57 | 322 | 0.0 | 0.0 | 0.00 | 0.00 | 0.00 | 39 | 1014.5 |
| 20260510062103 | 58 | 322 | 0.0 | 0.0 | 0.00 | 0.00 | 0.00 | 38 | 1014.6 |
| 20260510061604 | 58 | 322 | 0.0 | 0.0 | 0.00 | 0.00 | 0.00 | 37 | 1014.6 |
| 20260510060604 | 59 | 322 | 0.0 | 0.0 | 0.00 | 0.00 | 0.00 | 35 | 1014.6 |
| 20260510055604 | 59 | 322 | 0.0 | 0.0 | 0.00 | 0.00 | 0.00 | 34 | 1014.7 |
| 20260510055103 | 60 | 322 | 0.0 | 0.0 | 0.00 | 0.00 | 0.00 | 33 | 1014.5 |
| 20260510054604 | 60 | 322 | 0.0 | 0.0 | 0.00 | 0.00 | 0.00 | 32 | 1014.5 |
| 20260510053104 | 61 | 322 | 0.0 | 0.0 | 0.00 | 0.00 | 0.00 | 32 | 1014.5 |
| 20260510052603 | 61 | 322 | 0.0 | 0.0 | 0.00 | 0.00 | 0.00 | 31 | 1014.5 |
| 20260510052104 | 62 | 322 | 0.0 | 0.0 | 0.00 | 0.00 | 0.00 | 31 | 1014.5 |
| 20260510051603 | 62 | 322 | 0.0 | 0.0 | 0.00 | 0.00 | 0.00 | 31 | 1014.5 |
| 20260510051104 | 63 | 322 | 0.0 | 0.0 | 0.00 | 0.00 | 0.00 | 30 | 1014.6 |
| 20260510050603 | 63 | 322 | 0.0 | 0.0 | 0.00 | 0.00 | 0.00 | 29 | 1014.6 |
| 20260510050103 | 63 | 322 | 0.0 | 0.0 | 0.00 | 0.00 | 0.00 | 29 | 1014.6 |
| 20260510045604 | 64 | 322 | 0.0 | 0.0 | 0.00 | 0.00 | 0.00 | 29 | 1014.5 |
| 20260510045103 | 64 | 322 | 0.0 | 0.0 | 0.00 | 0.00 | 0.00 | 29 | 1014.6 |
| 20260510044605 | 65 | 322 | 0.0 | 0.0 | 0.00 | 0.00 | 0.00 | 28 | 1014.5 |
| 20260510044104 | 65 | 322 | 0.0 | 0.0 | 0.00 | 0.00 | 0.00 | 27 | 1014.4 |
| 20260510043104 | 66 | 322 | 0.0 | 0.0 | 0.00 | 0.00 | 0.00 | 26 | 1014.4 |
| 20260510042604 | 66 | 322 | 0.0 | 0.0 | 0.00 | 0.00 | 0.00 | 26 | 1014.3 |
| 20260510042103 | 66 | 322 | 0.0 | 0.0 | 0.00 | 0.00 | 0.00 | 26 | 1014.2 |
| 20260510041604 | 67 | 322 | 0.0 | 0.0 | 0.00 | 0.00 | 0.00 | 27 | 1014.2 |
| 20260510040604 | 68 | 322 | 0.0 | 0.0 | 0.00 | 0.00 | 0.00 | 25 | 1014.1 |
| 20260510040105 | 69 | 322 | 0.0 | 0.0 | 0.00 | 0.00 | 0.00 | 25 | 1014.0 |
| 20260510034604 | 70 | 322 | 0.0 | 0.0 | 0.00 | 0.00 | 0.00 | 23 | 1013.8 |
| 20260510034104 | 70 | 322 | 0.0 | 0.0 | 0.00 | 0.00 | 0.00 | 23 | 1013.7 |
| 20260510032604 | 71 | 322 | 0.0 | 0.0 | 0.00 | 0.00 | 0.00 | 21 | 1013.7 |
| 20260510032103 | 71 | 322 | 0.0 | 0.0 | 0.00 | 0.00 | 0.00 | 21 | 1013.8 |
| 20260510031604 | 72 | 322 | 0.0 | 0.0 | 0.00 | 0.00 | 0.00 | 21 | 1013.6 |
| 20260510031105 | 72 | 322 | 0.0 | 0.0 | 0.00 | 0.00 | 0.00 | 20 | 1013.6 |
| 20260510030603 | 72 | 322 | 0.0 | 0.0 | 0.00 | 0.00 | 0.00 | 20 | 1013.5 |
| 20260510025104 | 73 | 322 | 0.0 | 0.0 | 0.00 | 0.00 | 0.00 | 19 | 1013.5 |
| 20260510024604 | 74 | 322 | 0.0 | 1.0 | 0.00 | 0.00 | 0.00 | 19 | 1013.6 |
| 20260510024103 | 74 | 320 | 0.0 | 0.0 | 0.00 | 0.00 | 0.00 | 19 | 1013.6 |
| 20260510023603 | 74 | 315 | 0.0 | 3.0 | 0.00 | 0.00 | 0.00 | 19 | 1013.6 |
| 20260510023105 | 74 | 328 | 1.0 | 5.0 | 0.00 | 0.00 | 0.00 | 18 | 1013.6 |
| 20260510022604 | 75 | 326 | 0.0 | 3.0 | 0.00 | 0.00 | 0.00 | 18 | 1013.5 |
| 20260510021604 | 75 | 327 | 1.0 | 3.0 | 0.00 | 0.00 | 0.00 | 16 | 1013.5 |
| 20260510021104 | 76 | 329 | 1.0 | 3.0 | 0.00 | 0.00 | 0.00 | 16 | 1013.4 |
| 20260510020603 | 76 | 319 | 2.0 | 8.0 | 0.00 | 0.00 | 0.00 | 16 | 1013.4 |
| 20260510020104 | 76 | 326 | 2.0 | 8.0 | 0.00 | 0.00 | 0.00 | 16 | 1013.4 |
| 20260510015604 | 77 | 327 | 1.0 | 6.0 | 0.00 | 0.00 | 0.00 | 16 | 1013.4 |
| 20260510015103 | 77 | 329 | 1.0 | 5.0 | 0.00 | 0.00 | 0.00 | 16 | 1013.4 |
| 20260510014604 | 77 | 330 | 2.0 | 8.0 | 0.00 | 0.00 | 0.00 | 16 | 1013.4 |
| 20260510014104 | 77 | 322 | 0.0 | 3.0 | 0.00 | 0.00 | 0.00 | 16 | 1013.5 |
| 20260510013603 | 78 | 324 | 2.0 | 5.0 | 0.00 | 0.00 | 0.00 | 16 | 1013.5 |
| 20260510012603 | 78 | 331 | 0.0 | 8.0 | 0.00 | 0.00 | 0.00 | 16 | 1013.6 |
| 20260510012104 | 78 | 326 | 2.0 | 9.0 | 0.00 | 0.00 | 0.00 | 15 | 1013.6 |
| 20260510011603 | 79 | 328 | 1.0 | 5.0 | 0.00 | 0.00 | 0.00 | 14 | 1013.5 |
| 20260510011104 | 79 | 302 | 0.0 | 6.0 | 0.00 | 0.00 | 0.00 | 15 | 1013.5 |
| 20260510010104 | 79 | 327 | 2.0 | 9.0 | 0.00 | 0.00 | 0.00 | 15 | 1013.5 |
| 20260510005604 | 79 | 329 | 1.0 | 5.0 | 0.00 | 0.00 | 0.00 | 15 | 1013.5 |
| 20260510005103 | 79 | 338 | 1.0 | 6.0 | 0.00 | 0.00 | 0.00 | 15 | 1013.4 |
| 20260510004104 | 80 | 311 | 0.0 | 5.0 | 0.00 | 0.00 | 0.00 | 15 | 1013.4 |
| 20260510003603 | 80 | 311 | 1.0 | 8.0 | 0.00 | 0.00 | 0.00 | 15 | 1013.3 |
| 20260510002604 | 80 | 318 | 1.0 | 12.0 | 0.00 | 0.00 | 0.00 | 15 | 1013.4 |
| 20260510002104 | 80 | 320 | 2.0 | 12.0 | 0.00 | 0.00 | 0.00 | 15 | 1013.5 |
| 20260510001604 | 80 | 325 | 3.0 | 7.0 | 0.00 | 0.00 | 0.00 | 14 | 1013.5 |
| 20260510000604 | 81 | 325 | 1.0 | 2.0 | 0.00 | 0.00 | 0.00 | 15 | 1013.6 |
| 20260510000103 | 82 | 325 | 2.0 | 9.0 | 0.00 | 0.00 | 0.00 | 14 | 1013.7 |
| 20260509235604 | 82 | 304 | 0.0 | 1.0 | 0.00 | 0.00 | 0.00 | 14 | 1013.7 |
| 20260509235103 | 82 | 350 | 1.0 | 3.0 | 0.00 | 0.00 | 0.00 | 14 | 1013.7 |
| 20260509234604 | 82 | 86 | 0.0 | 0.0 | 0.00 | 0.00 | 0.00 | 15 | 1013.8 |
| 20260509234104 | 82 | 71 | 0.0 | 2.0 | 0.00 | 0.00 | 0.00 | 16 | 1013.7 |
| 20260509233603 | 81 | 343 | 2.0 | 6.0 | 0.00 | 0.00 | 0.00 | 16 | 1013.9 |
| 20260509233104 | 82 | 335 | 1.0 | 3.0 | 0.00 | 0.00 | 0.00 | 15 | 1014.0 |
| 20260509232604 | 82 | 323 | 0.0 | 2.0 | 0.00 | 0.00 | 0.00 | 16 | 1014.0 |
| 20260509232104 | 82 | 324 | 1.0 | 6.0 | 0.00 | 0.00 | 0.00 | 15 | 1014.1 |
| 20260509231604 | 82 | 330 | 0.0 | 1.0 | 0.00 | 0.00 | 0.00 | 16 | 1014.3 |
| 20260509231103 | 82 | 313 | 0.0 | 2.0 | 0.00 | 0.00 | 0.00 | 16 | 1014.6 |
| 20260509230604 | 82 | 197 | 1.0 | 3.0 | 0.00 | 0.00 | 0.00 | 16 | 1014.5 |
| 20260509230104 | 82 | 132 | 0.0 | 3.0 | 0.00 | 0.00 | 0.00 | 15 | 1014.7 |
| 20260509225604 | 83 | 180 | 0.0 | 2.0 | 0.00 | 0.00 | 0.00 | 15 | 1014.7 |
| 20260509225104 | 83 | 85 | 1.0 | 3.0 | 0.00 | 0.00 | 0.00 | 15 | 1014.7 |
| 20260509224604 | 82 | 91 | 0.0 | 1.0 | 0.00 | 0.00 | 0.00 | 16 | 1014.9 |
| 20260509223604 | 82 | 108 | 0.0 | 3.0 | 0.00 | 0.00 | 0.00 | 15 | 1015.1 |
| 20260509223103 | 82 | 71 | 0.0 | 3.0 | 0.00 | 0.00 | 0.00 | 16 | 1015.2 |
| 20260509222604 | 82 | 152 | 0.0 | 0.0 | 0.00 | 0.00 | 0.00 | 15 | 1015.3 |
| 20260509221604 | 82 | 149 | 0.0 | 2.0 | 0.00 | 0.00 | 0.00 | 15 | 1015.4 |
| 20260509221103 | 83 | 25 | 0.0 | 2.0 | 0.00 | 0.00 | 0.00 | 16 | 1015.3 |
| 20260509220604 | 83 | 162 | 0.0 | 1.0 | 0.00 | 0.00 | 0.00 | 16 | 1015.5 |
| 20260509215603 | 83 | 213 | 0.0 | 2.0 | 0.00 | 0.00 | 0.00 | 16 | 1015.7 |
| 20260509214604 | 82 | 213 | 0.0 | 0.0 | 0.00 | 0.00 | 0.00 | 15 | 1015.8 |
| 20260509214104 | 82 | 206 | 0.0 | 2.0 | 0.00 | 0.00 | 0.00 | 16 | 1016.0 |
| 20260509213603 | 81 | 324 | 0.0 | 0.0 | 0.00 | 0.00 | 0.00 | 17 | 1015.9 |
| 20260509213104 | 80 | 325 | 0.0 | 0.0 | 0.00 | 0.00 | 0.00 | 17 | 1016.0 |
| 20260509212604 | 80 | 325 | 0.0 | 3.0 | 0.00 | 0.00 | 0.00 | 18 | 1015.9 |
| 20260509212104 | 79 | 77 | 1.0 | 3.0 | 0.00 | 0.00 | 0.00 | 18 | 1016.0 |
| 20260509211604 | 79 | 328 | 1.0 | 5.0 | 0.00 | 0.00 | 0.00 | 17 | 1016.1 |